Location: Limoges
(45.8354°N, 1.2645°E)
Time: 10:08:14
(UTC+01:00)

SR - Visible Passes

Search period start: 25 February 2024 00:00
Search period end: 06 March 2024 00:00
Orbit: 573 x 868 km, 66.7° (Epoch: 24 February)

Date Brightness Start Highest point End Pass type
(mag) Time Alt. Az. Time Alt. Az. Time Alt. Az.
26 Feb ? 22:13:05 10° N 22:13:12 10° N 22:13:12 10° N visible
28 Feb ? 22:10:48 10° N 22:11:31 12° N 22:11:31 12° N visible
29 Feb ? 21:19:42 10° N 21:21:04 12° NNE 21:21:04 12° NNE visible
29 Feb ? 23:00:15 10° NNW 23:00:19 10° NNW 23:00:19 10° NNW visible
01 Mar ? 22:08:40 10° NNW 22:09:53 15° N 22:09:53 15° N visible
02 Mar ? 21:17:17 10° N 21:19:26 15° NNE 21:19:26 15° NNE visible
02 Mar ? 22:58:21 10° NNW 22:58:42 12° NNW 22:58:42 12° NNW visible
03 Mar ? 20:26:27 10° N 20:27:47 11° NNE 20:29:01 10° NE visible
03 Mar ? 22:06:37 10° NNW 22:08:17 19° N 22:08:17 19° N visible
04 Mar ? 21:15:06 10° NNW 21:17:53 20° NNE 21:17:53 20° NNE visible
04 Mar ? 22:56:33 10° NW 22:57:08 13° NW 22:57:08 13° NW visible
05 Mar ? 20:23:47 10° N 20:26:31 14° NNE 20:27:30 13° NE visible
05 Mar ? 22:04:40 10° NNW 22:06:46 24° NNW 22:06:46 24° NNW visible
